Weather History for Midland Airpark, TX

Change the Weather History Date:

Wednesday, November 7, 2012

  Actual Average (KMAF) Record (KMAF)
Temperature  
Mean Temperature 66 °F 56 °F  
Max Temperature 81 °F 70 °F 88 °F (1963)
Min Temperature 52 °F 43 °F 22 °F (1938)
Degree Days  
Heating Degree Days 0 9  
Month to date heating degree days 55  
Since 1 July heating degree days 164  
Cooling Degree Days 2    
Growing Degree Days 16 (Base 50)    
Moisture  
Dew Point 43 °F    
Average Humidity 42    
Maximum Humidity 67    
Minimum Humidity 22    
Precipitation  
Precipitation 0.00 in 0.03 in 0.41 in (2000)
Month to date precipitation 0.19  
Year to date precipitation 13.50  
Snow  
Snow 0.00 in - - ()
Month to date snowfall  
Since 1 July snowfall  
Since 1 September snowfall  
Snow Depth -    
Sea Level Pressure  
Sea Level Pressure 30.11 in    
Wind  
Wind Speed 6 mph (South)    
Max Wind Speed 15 mph    
Max Gust Speed 20 mph    
Visibility 10 miles    
Events      
T = Trace of Precipitation, MM = Missing Value Source: NWS Daily Summary

Daily Weather History Graph

Daily Weather History Graph

Search for Another Location

Airport:

Trip Planner

Search our weather history database for the weather conditions in past years. The results will help you decide how hot, cold, wet, or windy it might be!

Date:

Astronomy

Nov. 07, 2012 Rise Set
Actual Time 7:10 AM CST 5:53 PM CST
Civil Twilight 6:45 AM CST 6:18 PM CST
Nautical Twilight 6:15 AM CST 6:47 PM CST
Astronomical Twilight 5:47 AM CST 7:16 PM CST
Moon 12:30 AM CST (11/7) 1:41 PM CST (11/7)
Length of Visible Light 11h 33m
Length of Day
10h 42m
Last Quarter, 43% of the Moon is Illuminated
Nov 7
Last Quarter
Nov 13
New
Nov 20
First Quarter
Nov 28
Full
Dec 6
Last Quarter

Hourly Weather History & Observations

Time (CST) Temp. Dew Point Humidity Pressure Visibility Wind Dir Wind Speed Gust Speed Precip Events Conditions
12:15 AM 57.9 °F 39.4 °F 50% 30.19 in 10.0 mi Calm Calm - N/A   Clear
12:35 AM 57.7 °F 39.6 °F 51% 30.19 in 10.0 mi Calm Calm - N/A   Clear
12:55 AM 57.7 °F 39.7 °F 51% 30.20 in 10.0 mi Calm Calm - N/A   Clear
1:15 AM 57.2 °F 39.9 °F 52% 30.20 in 10.0 mi Calm Calm - N/A   Clear
1:35 AM 56.5 °F 40.5 °F 55% 30.19 in 10.0 mi Calm Calm - N/A   Clear
1:55 AM 55.8 °F 40.6 °F 57% 30.20 in 10.0 mi Calm Calm - N/A   Clear
2:15 AM 55.0 °F 41.0 °F 59% 30.19 in 10.0 mi Calm Calm - N/A   Clear
2:55 AM 53.1 °F 41.2 °F 64% 30.19 in 10.0 mi Calm Calm - N/A   Clear
7:15 AM 53.1 °F 41.9 °F 66% 30.19 in 10.0 mi SSE 4.6 mph - N/A   Clear
7:35 AM 52.9 °F 42.3 °F 67% 30.19 in 10.0 mi SSE 4.6 mph - N/A   Clear
7:55 AM 54.0 °F 42.8 °F 66% 30.20 in 10.0 mi SSE 4.6 mph - N/A   Clear
8:15 AM 55.2 °F 43.3 °F 64% 30.20 in 10.0 mi SSE 4.6 mph - N/A   Clear
8:35 AM 57.9 °F 43.7 °F 59% 30.21 in 10.0 mi SSE 4.6 mph - N/A   Clear
8:55 AM 60.4 °F 44.1 °F 55% 30.21 in 10.0 mi SSE 6.9 mph - N/A   Clear
9:15 AM 62.2 °F 44.1 °F 51% 30.21 in 10.0 mi South 8.1 mph - N/A   Clear
9:35 AM 63.9 °F 44.6 °F 50% 30.21 in 10.0 mi SSE 8.1 mph - N/A   Clear
9:55 AM 65.7 °F 45.1 °F 47% 30.20 in 10.0 mi SSE 9.2 mph - N/A   Clear
10:15 AM 67.5 °F 45.3 °F 45% 30.20 in 10.0 mi SSE 8.1 mph - N/A   Clear
10:35 AM 69.1 °F 45.9 °F 43% 30.19 in 10.0 mi South 8.1 mph - N/A   Clear
10:55 AM 71.4 °F 45.5 °F 39% 30.19 in 10.0 mi SSE 11.5 mph - N/A   Clear
11:15 AM 72.9 °F 45.3 °F 37% 30.18 in 10.0 mi SSE 10.4 mph - N/A   Clear
11:35 AM 73.8 °F 44.8 °F 35% 30.17 in 10.0 mi South 10.4 mph 17.3 mph N/A   Clear
11:55 AM 74.8 °F 44.2 °F 33% 30.16 in 10.0 mi South 10.4 mph - N/A   Clear
12:15 PM 75.7 °F 43.9 °F 32% 30.14 in 10.0 mi South 11.5 mph 16.1 mph N/A   Clear
12:35 PM 76.8 °F 43.3 °F 30% 30.13 in 10.0 mi South 13.8 mph 19.6 mph N/A   Clear
12:55 PM 77.5 °F 42.8 °F 29% 30.12 in 10.0 mi South 12.7 mph - N/A   Clear
1:15 PM 78.6 °F 42.1 °F 27% 30.10 in 10.0 mi SSE 12.7 mph - N/A   Clear
1:35 PM 79.3 °F 42.1 °F 27% 30.08 in 10.0 mi South 11.5 mph - N/A   Clear
1:55 PM 80.2 °F 42.1 °F 26% 30.07 in 10.0 mi South 13.8 mph 19.6 mph N/A   Clear
2:15 PM 81.0 °F 41.2 °F 24% 30.07 in 10.0 mi South 13.8 mph - N/A   Clear
2:35 PM 81.5 °F 40.5 °F 23% 30.06 in 10.0 mi South 15.0 mph 18.4 mph N/A   Clear
2:55 PM 81.5 °F 40.1 °F 23% 30.05 in 10.0 mi SSW 12.7 mph 18.4 mph N/A   Clear
3:15 PM 81.5 °F 39.9 °F 23% 30.04 in 10.0 mi South 12.7 mph 16.1 mph N/A   Clear
3:35 PM 81.5 °F 40.1 °F 23% 30.04 in 10.0 mi South 13.8 mph - N/A   Clear
3:55 PM 81.7 °F 40.3 °F 23% 30.04 in 10.0 mi South 11.5 mph 17.3 mph N/A   Clear
4:15 PM 81.7 °F 40.5 °F 23% 30.03 in 10.0 mi South 11.5 mph - N/A   Clear
4:35 PM 81.3 °F 40.6 °F 24% 30.03 in 10.0 mi South 10.4 mph 18.4 mph N/A   Clear
4:55 PM 81.0 °F 40.3 °F 23% 30.03 in 10.0 mi South 10.4 mph - N/A   Clear
5:15 PM 80.4 °F 38.3 °F 22% 30.03 in 10.0 mi South 10.4 mph - N/A   Clear
5:35 PM 79.3 °F 39.0 °F 24% 30.03 in 10.0 mi South 6.9 mph - N/A   Clear
5:55 PM 77.0 °F 40.1 °F 27% 30.03 in 10.0 mi South 8.1 mph - N/A   Clear
6:15 PM 74.8 °F 41.2 °F 30% 30.03 in 10.0 mi South 8.1 mph - N/A   Clear
6:35 PM 73.8 °F 41.5 °F 31% 30.04 in 10.0 mi South 9.2 mph - N/A   Clear
6:55 PM 73.0 °F 41.9 °F 33% 30.04 in 10.0 mi South 10.4 mph - N/A   Clear
7:15 PM 72.1 °F 42.4 °F 34% 30.05 in 10.0 mi South 9.2 mph - N/A   Clear
7:35 PM 71.1 °F 43.2 °F 37% 30.06 in 10.0 mi South 10.4 mph - N/A   Clear
7:55 PM 69.6 °F 43.7 °F 39% 30.06 in 10.0 mi South 10.4 mph - N/A   Clear
8:15 PM 68.4 °F 44.2 °F 42% 30.06 in 10.0 mi South 9.2 mph - N/A   Clear
8:35 PM 67.3 °F 45.0 °F 45% 30.06 in 10.0 mi South 9.2 mph - N/A   Clear
8:55 PM 66.4 °F 45.5 °F 47% 30.06 in 10.0 mi South 9.2 mph - N/A   Clear
9:15 PM 65.5 °F 45.9 °F 49% 30.06 in 10.0 mi SSE 8.1 mph - N/A   Clear
9:35 PM 64.6 °F 46.8 °F 52% 30.06 in 10.0 mi South 8.1 mph - N/A   Clear
9:55 PM 64.8 °F 47.5 °F 53% 30.06 in 10.0 mi South 9.2 mph - N/A   Clear
10:15 PM 64.9 °F 48.2 °F 55% 30.06 in 10.0 mi South 11.5 mph - N/A   Clear
10:35 PM 64.9 °F 48.9 °F 56% 30.05 in 10.0 mi South 11.5 mph - N/A   Clear
10:55 PM 64.6 °F 49.5 °F 58% 30.05 in 10.0 mi South 11.5 mph - N/A   Clear
11:15 PM 64.8 °F 50.4 °F 60% 30.05 in 10.0 mi South 11.5 mph 17.3 mph N/A   Clear
11:35 PM 65.1 °F 51.1 °F 60% 30.04 in 10.0 mi South 10.4 mph - N/A   Clear
11:55 PM 65.3 °F 51.6 °F 61% 30.04 in 10.0 mi South 10.4 mph 17.3 mph N/A   Clear